GW5499 Weather Reports


Display with metric or nautical units.
time (UTC)temp
F
wind
direction
speed
MPH
gust
MPH
rain 1hr
in
rain 24hr
in
rain mn
in
humidity
%
barometer
mb
20260502123017 51 290 0.0 0.0 0.00 0.00 0.00 94 1020.2
20260502121522 50 290 0.0 2.0 0.00 0.00 0.00 94 1020.0
20260502114507 49 257 0.0 1.0 0.00 0.00 0.00 94 1019.8
20260502113019 49 257 0.0 0.0 0.00 0.00 0.00 94 1019.3
20260502111518 49 257 0.0 0.0 0.00 0.00 0.00 93 1018.8
20260502110007 49 257 0.0 0.0 0.00 0.00 0.00 93 1018.7
20260502104506 50 257 0.0 0.0 0.00 0.00 0.00 93 1018.5
20260502103012 51 253 0.0 2.0 0.00 0.00 0.00 93 1018.5
20260502101515 51 266 0.0 2.0 0.00 0.00 0.00 93 1018.7
20260502091512 50 234 0.0 0.0 0.00 0.00 0.00 93 1018.2
20260502071508 55 234 0.0 2.0 0.00 0.00 0.00 88 1018.5
20260502070014 55 273 0.0 0.0 0.00 0.00 0.00 88 1018.5
20260502064535 55 273 0.0 0.0 0.00 0.00 0.00 87 1018.6
20260502063024 55 282 0.0 2.0 0.00 0.00 0.00 88 1018.6
20260502061503 54 250 0.0 0.0 0.00 0.00 0.00 89 1018.6
20260502060020 54 273 0.0 2.0 0.00 0.00 0.00 90 1018.5
20260502054518 54 273 0.0 0.0 0.00 0.00 0.00 89 1018.3
20260502053021 55 242 0.0 0.0 0.00 0.00 0.00 88 1018.3
20260502051534 56 266 0.0 0.0 0.00 0.00 0.00 88 1018.2
20260502050014 56 266 0.0 0.0 0.00 0.00 0.00 88 1018.3
20260502044514 56 266 0.0 2.0 0.00 0.00 0.00 88 1018.4
20260502043019 56 230 0.0 0.0 0.00 0.00 0.00 88 1018.4
20260502041531 56 230 0.0 0.0 0.00 0.00 0.00 88 1018.3
20260502040024 56 230 0.0 0.0 0.00 0.00 0.00 88 1018.4
20260502034511 56 230 0.0 0.0 0.00 0.00 0.00 86 1018.4
20260502033026 56 230 0.0 0.0 0.00 0.00 0.00 85 1018.3
20260502031520 56 230 0.0 0.0 0.00 0.00 0.00 86 1018.1
20260502030023 56 153 0.0 0.0 0.00 0.00 0.00 86 1018.0
20260502024531 56 153 0.0 0.0 0.00 0.00 0.00 85 1017.8
20260502023014 56 153 0.0 0.0 0.00 0.00 0.00 85 1017.8
20260502021518 57 153 0.0 2.0 0.00 0.00 0.00 84 1017.8
20260502020024 57 63 0.0 2.0 0.00 0.00 0.00 81 1017.5
20260502014528 57 24 0.0 2.0 0.00 0.00 0.00 79 1017.6
20260502013013 58 24 0.0 2.0 0.00 0.00 0.00 79 1017.2
20260502011515 59 24 0.0 2.0 0.00 0.00 0.00 72 1017.1
20260502010027 59 46 1.0 4.0 0.00 0.00 0.00 70 1016.5
20260502004530 59 46 1.0 6.0 0.00 0.00 0.00 71 1016.6
20260502003027 59 57 0.0 4.0 0.00 0.00 0.00 70 1016.4
20260502001518 60 64 1.0 5.0 0.00 0.00 0.00 69 1016.0
20260502000022 60 82 2.0 4.0 0.00 0.00 0.00 70 1015.8
20260501234524 60 53 1.0 4.0 0.00 0.00 0.00 71 1015.7
20260501233008 60 92 2.0 4.0 0.00 0.00 0.00 70 1015.7
20260501231511 60 34 2.0 4.0 0.00 0.00 0.00 68 1015.6
20260501230023 60 77 0.0 3.0 0.00 0.00 0.00 70 1015.5
20260501224522 61 86 1.0 4.0 0.00 0.00 0.00 69 1015.4
20260501223026 60 74 1.0 4.0 0.00 0.00 0.00 68 1015.4
20260501221511 60 21 1.0 9.0 0.00 0.00 0.00 67 1015.3
20260501220025 60 42 3.0 9.0 0.00 0.00 0.00 68 1015.2
20260501214525 60 36 4.0 11.0 0.00 0.00 0.00 66 1014.3
20260501213034 60 27 6.0 13.0 0.00 0.00 0.00 67 1014.6
20260501211530 60 68 4.0 8.0 0.00 0.00 0.00 68 1015.2
20260501210012 60 37 4.0 11.0 0.00 0.00 0.00 67 1015.5
20260501204536 60 20 5.0 9.0 0.00 0.00 0.00 67 1015.4
20260501203023 60 53 3.0 10.0 0.00 0.00 0.00 66 1015.6
20260501201528 61 56 3.0 12.0 0.00 0.00 0.00 64 1016.0
20260501200032 61 323 6.0 13.0 0.00 0.00 0.00 63 1015.4
20260501194521 61 38 6.0 14.0 0.00 0.00 0.00 63 1015.1
20260501193030 62 54 6.0 15.0 0.00 0.00 0.00 65 1015.0
20260501191534 61 64 6.0 11.0 0.00 0.00 0.00 68 1014.9
20260501190038 62 46 3.0 14.0 0.00 0.00 0.00 67 1015.4
20260501184534 61 45 7.0 15.0 0.00 0.00 0.00 70 1015.5
20260501183021 61 41 7.0 14.0 0.00 0.00 0.00 71 1016.0
20260501181525 61 204 4.0 10.0 0.00 0.00 0.00 72 1016.5
20260501180027 59 21 5.0 11.0 0.00 0.00 0.00 71 1016.8
20260501174533 60 5 5.0 10.0 0.00 0.00 0.00 75 1017.0
20260501173018 59 74 3.0 12.0 0.00 0.00 0.00 78 1016.8
20260501171546 58 11 5.0 11.0 0.00 0.00 0.00 79 1017.3
20260501170027 57 22 4.0 7.0 0.00 0.00 0.00 80 1017.5
20260501164528 56 11 3.0 10.0 0.00 0.00 0.00 82 1017.6
20260501163026 56 22 3.0 7.0 0.00 0.00 0.00 82 1017.6
20260501161520 55 22 5.0 11.0 0.00 0.00 0.00 83 1017.5
20260501160026 55 21 2.0 9.0 0.00 0.00 0.00 84 1017.7
20260501154539 55 14 4.0 9.0 0.00 0.00 0.00 82 1017.8
20260501153030 55 17 2.0 10.0 0.00 0.00 0.00 81 1017.9
20260501151528 55 64 4.0 11.0 0.00 0.00 0.00 79 1017.6
20260501150023 56 71 4.0 12.0 0.00 0.00 0.00 78 1017.4
20260501144528 55 30 5.0 11.0 0.00 0.00 0.00 79 1017.1
20260501143011 55 46 3.0 11.0 0.00 0.00 0.00 79 1017.3